Location: Wald
(31.7579°N, 86.6655°W)
Time: 20:39:13
(UTC+00:00)

Delta 2 Rocket - Pass Details

Date: 14 July 2020
Orbit: 416 x 807 km, 35.6° (Epoch: 13 August)

Event Time Altitude Azimuth Distance (km) Brightness Sun altitude
Rises 01:16:20 0° 287° (WNW) 2,683 8.9 -5.1°
Reaches altitude 10° 01:18:43 10° 284° (WNW) 1,724 7.4 -5.5°
Maximum altitude 01:22:36 67° 203° (SSW) 512 3.1 -6.2°
Drops below altitude 10° 01:26:05 10° 119° (ESE) 1,551 4.9 -6.9°
Enters shadow 01:26:17 - 119° (ESE) 1,632 5.0 -6.9°
